Weather History for Williams, AZ

Change the Weather History Date:

Thursday, March 13, 2014

  Actual Average (KFLG) Record (KFLG)
Temperature  
Mean Temperature 42 °F -  
Max Temperature 53 °F 50 °F 70 °F (2007)
Min Temperature 32 °F 23 °F -9 °F (1962)
Degree Days  
Heating Degree Days 22 28  
Month to date heating degree days 384  
Since 1 July heating degree days 5223  
Cooling Degree Days 0 0  
Month to date cooling degree days 0  
Year to date cooling degree days 0  
Moisture  
Dew Point 23 °F    
Average Humidity 51    
Maximum Humidity 87    
Minimum Humidity 30    
Precipitation  
Precipitation 0.00 in 0.08 in 1.27 in (1905)
Month to date precipitation 0.98  
Year to date precipitation 5.19  
Snow  
Snow 0.00 in 0.80 in 7.10 in (1990)
Month to date snowfall 9.8  
Since 1 July snowfall 83.0  
Since 1 September snowfall 83.0  
Snow Depth -    
Sea Level Pressure  
Sea Level Pressure 30.12 in    
Wind  
Wind Speed 8 mph (SE)    
Max Wind Speed 15 mph    
Max Gust Speed 20 mph    
Visibility 10 miles    
Events      
T = Trace of Precipitation, MM = Missing Value Source: NWS Daily Summary

Daily Weather History Graph

Daily Weather History Graph

Search for Another Location

Airport:

Trip Planner

Search our weather history database for the weather conditions in past years. The results will help you decide how hot, cold, wet, or windy it might be!

Date:

Astronomy

Mar. 13, 2014 Rise Set
Actual Time 6:42 AM MST 6:34 PM MST
Civil Twilight 6:16 AM MST 7:00 PM MST
Nautical Twilight 5:47 AM MST 7:29 PM MST
Astronomical Twilight 5:17 AM MST 7:59 PM MST
Moon 4:08 PM MST (3/13) 4:46 AM MST (3/13)
Length of Visible Light 12h 43m
Length of Day
11h 52m
Waxing Gibbous, 92% of the Moon is Illuminated
Mar 13
Waxing Gibbous
Mar 16
Full
Mar 23
Last Quarter
Mar 30
New
Apr 7
First Quarter

Hourly Weather History & Observations

Time (MST) Temp. Windchill Dew Point Humidity Pressure Visibility Wind Dir Wind Speed Gust Speed Precip Events Conditions
12:15 AM 33.8 °F 27.0 °F 15.8 °F 48% 30.21 in 10.0 mi SE 8.1 mph - N/A   Clear
12:35 AM 35.6 °F 28.6 °F 15.8 °F 44% 30.20 in 10.0 mi SE 9.2 mph - N/A   Scattered Clouds
12:55 AM 35.6 °F 28.6 °F 15.8 °F 44% 30.20 in 10.0 mi SE 9.2 mph - N/A   Mostly Cloudy
1:15 AM 37.4 °F 31.4 °F 15.8 °F 41% 30.20 in 10.0 mi SE 8.1 mph - N/A   Overcast
1:35 AM 37.4 °F 31.4 °F 15.8 °F 41% 30.19 in 10.0 mi SE 8.1 mph - N/A   Overcast
1:55 AM 39.2 °F 33.6 °F 15.8 °F 39% 30.19 in 10.0 mi SE 8.1 mph - N/A   Overcast
2:15 AM 39.2 °F 33.0 °F 17.6 °F 42% 30.18 in 10.0 mi SE 9.2 mph - N/A   Overcast
2:35 AM 39.2 °F 33.0 °F 17.6 °F 42% 30.17 in 10.0 mi SE 9.2 mph - N/A   Overcast
2:55 AM 39.2 °F 33.0 °F 17.6 °F 42% 30.16 in 10.0 mi SE 9.2 mph - N/A   Mostly Cloudy
3:15 AM 39.2 °F 32.5 °F 17.6 °F 42% 30.16 in 10.0 mi SE 10.4 mph - N/A   Partly Cloudy
3:35 AM 37.4 °F 30.8 °F 17.6 °F 45% 30.15 in 10.0 mi SE 9.2 mph - N/A   Mostly Cloudy
3:55 AM 37.4 °F 30.3 °F 17.6 °F 45% 30.15 in 10.0 mi SSE 10.4 mph - N/A   Partly Cloudy
4:15 AM 37.4 °F 30.8 °F 17.6 °F 45% 30.15 in 10.0 mi SE 9.2 mph - N/A   Partly Cloudy
4:35 AM 37.4 °F 30.8 °F 17.6 °F 45% 30.15 in 10.0 mi SE 9.2 mph - N/A   Mostly Cloudy
4:55 AM 37.4 °F 32.1 °F 19.4 °F 48% 30.15 in 10.0 mi SE 6.9 mph - N/A   Mostly Cloudy
5:15 AM 37.4 °F 31.4 °F 17.6 °F 45% 30.15 in 10.0 mi SE 8.1 mph - N/A   Overcast
5:35 AM 37.4 °F 32.1 °F 19.4 °F 48% 30.16 in 10.0 mi SE 6.9 mph - N/A   Overcast
5:55 AM 37.4 °F 31.4 °F 19.4 °F 48% 30.15 in 10.0 mi SE 8.1 mph - N/A   Overcast
6:15 AM 37.4 °F 32.1 °F 19.4 °F 48% 30.15 in 10.0 mi SE 6.9 mph - N/A   Overcast
6:35 AM 37.4 °F 31.4 °F 19.4 °F 48% 30.15 in 10.0 mi SE 8.1 mph - N/A   Overcast
6:55 AM 39.2 °F 33.0 °F 19.4 °F 45% 30.15 in 10.0 mi SE 9.2 mph - N/A   Overcast
7:15 AM 39.2 °F 33.0 °F 19.4 °F 45% 30.15 in 10.0 mi SE 9.2 mph - N/A   Overcast
7:35 AM 39.2 °F 31.6 °F 19.4 °F 45% 30.16 in 10.0 mi SE 12.7 mph - N/A   Overcast
7:55 AM 41.0 °F 35.2 °F 19.4 °F 42% 30.16 in 10.0 mi SE 9.2 mph - N/A   Overcast
8:15 AM 41.0 °F 34.3 °F 19.4 °F 42% 30.16 in 10.0 mi SE 11.5 mph - N/A   Overcast
8:35 AM 41.0 °F 34.7 °F 21.2 °F 45% 30.16 in 10.0 mi SE 10.4 mph - N/A   Overcast
8:55 AM 41.0 °F 34.3 °F 21.2 °F 45% 30.16 in 10.0 mi SE 11.5 mph - N/A   Overcast
9:15 AM 44.6 °F 40.7 °F 21.2 °F 39% 30.15 in 10.0 mi SE 6.9 mph - N/A   Overcast
9:35 AM 46.4 °F 41.9 °F 23.0 °F 40% 30.15 in 10.0 mi ESE 9.2 mph - N/A   Overcast
9:55 AM 48.2 °F - 23.0 °F 37% 30.15 in 10.0 mi SE 11.5 mph - N/A   Overcast
10:15 AM 48.2 °F - 23.0 °F 37% 30.14 in 10.0 mi SE 9.2 mph - N/A   Overcast
10:35 AM 50.0 °F - 23.0 °F 35% 30.14 in 10.0 mi SE 8.1 mph - N/A   Overcast
10:55 AM 50.0 °F - 23.0 °F 35% 30.13 in 10.0 mi SSW 9.2 mph - N/A   Overcast
11:15 AM 50.0 °F - 23.0 °F 35% 30.13 in 10.0 mi SSW 6.9 mph - N/A   Mostly Cloudy
11:35 AM 51.8 °F - 23.0 °F 33% 30.12 in 10.0 mi South 9.2 mph - N/A   Mostly Cloudy
11:55 AM 50.0 °F - 23.0 °F 35% 30.12 in 10.0 mi SSW 10.4 mph - N/A   Overcast
12:15 PM 51.8 °F - 23.0 °F 33% 30.11 in 10.0 mi SW 5.8 mph - N/A   Mostly Cloudy
12:35 PM 53.6 °F - 23.0 °F 30% 30.10 in 10.0 mi West 8.1 mph - N/A   Mostly Cloudy
12:55 PM 51.8 °F - 21.2 °F 30% 30.10 in 10.0 mi West 12.7 mph 17.3 mph N/A   Overcast
1:15 PM 50.0 °F - 19.4 °F 30% 30.09 in 10.0 mi WSW 11.5 mph 17.3 mph N/A   Mostly Cloudy
1:35 PM 51.8 °F - 21.2 °F 30% 30.10 in 10.0 mi SW 10.4 mph - N/A   Scattered Clouds
1:55 PM 50.0 °F - 24.8 °F 37% 30.09 in 10.0 mi West 15.0 mph 19.6 mph N/A   Scattered Clouds
2:15 PM 50.0 °F - 23.0 °F 35% 30.09 in 10.0 mi West 11.5 mph - N/A   Mostly Cloudy
2:35 PM 50.0 °F - 23.0 °F 35% 30.09 in 10.0 mi SW 5.8 mph - N/A   Mostly Cloudy
2:55 PM 50.0 °F - 24.8 °F 37% 30.09 in 10.0 mi West 13.8 mph - N/A   Overcast
3:15 PM 48.2 °F - 24.8 °F 40% 30.09 in 10.0 mi WSW 8.1 mph - N/A   Scattered Clouds
3:35 PM 48.2 °F - 24.8 °F 40% 30.09 in 10.0 mi SE 4.6 mph - N/A   Mostly Cloudy
3:55 PM 48.2 °F - 24.8 °F 40% 30.09 in 10.0 mi West 10.4 mph - N/A   Mostly Cloudy
4:15 PM 44.6 °F 38.8 °F 32.0 °F 61% 30.10 in 7.0 mi West 11.5 mph 16.1 mph N/A   Overcast
4:35 PM 44.6 °F 43.1 °F 32.0 °F 61% 30.09 in 9.0 mi NW 3.5 mph - N/A   Scattered Clouds
4:55 PM 44.6 °F - 30.2 °F 57% 30.08 in 10.0 mi Calm Calm - N/A   Partly Cloudy
5:15 PM 44.6 °F 41.4 °F 30.2 °F 57% 30.08 in 10.0 mi NNE 5.8 mph - N/A   Mostly Cloudy
5:35 PM 44.6 °F 43.1 °F 28.4 °F 53% 30.08 in 10.0 mi NE 3.5 mph - N/A   Scattered Clouds
5:55 PM 44.6 °F 43.1 °F 28.4 °F 53% 30.07 in 10.0 mi NE 3.5 mph - N/A   Clear
6:15 PM 42.8 °F 39.3 °F 32.0 °F 66% 30.08 in 10.0 mi North 5.8 mph - N/A   Clear
6:35 PM 41.0 °F 37.1 °F 30.2 °F 65% 30.07 in 10.0 mi NNE 5.8 mph - N/A   Clear
6:55 PM 39.2 °F 35.9 °F 30.2 °F 70% 30.08 in 10.0 mi NNE 4.6 mph - N/A   Clear
7:15 PM 39.2 °F 35.0 °F 30.2 °F 70% 30.08 in 10.0 mi NNE 5.8 mph - N/A   Clear
7:35 PM 39.2 °F 37.0 °F 30.2 °F 70% 30.08 in 10.0 mi East 3.5 mph - N/A   Clear
7:55 PM 37.4 °F 34.9 °F 30.2 °F 75% 30.08 in 10.0 mi East 3.5 mph - N/A   Clear
8:15 PM 37.4 °F 33.8 °F 30.2 °F 75% 30.08 in 10.0 mi NE 4.6 mph - N/A   Clear
8:35 PM 37.4 °F 34.9 °F 30.2 °F 75% 30.09 in 10.0 mi North 3.5 mph - N/A   Clear
8:55 PM 37.4 °F - 28.4 °F 70% 30.09 in 10.0 mi Calm Calm - N/A   Clear
9:15 PM 32.0 °F 28.7 °F 26.6 °F 80% 30.09 in 10.0 mi ESE 3.5 mph - N/A   Clear
9:35 PM 35.6 °F - 28.4 °F 75% 30.09 in 10.0 mi Calm Calm - N/A   Clear
9:55 PM 32.0 °F - 26.6 °F 80% 30.10 in 10.0 mi Calm Calm - N/A   Clear
10:15 PM 32.0 °F 27.5 °F 28.4 °F 87% 30.10 in 10.0 mi SSE 4.6 mph - N/A   Mostly Cloudy
10:35 PM 32.0 °F 26.4 °F 28.4 °F 87% 30.10 in 10.0 mi SE 5.8 mph - N/A   Overcast
10:55 PM 32.0 °F 28.7 °F 28.4 °F 87% 30.10 in 10.0 mi SE 3.5 mph - N/A   Overcast
11:15 PM 33.8 °F 29.6 °F 28.4 °F 81% 30.10 in 10.0 mi SE 4.6 mph - N/A   Overcast
11:35 PM 35.6 °F 31.7 °F 28.4 °F 75% 30.09 in 10.0 mi SE 4.6 mph - N/A   Overcast
11:55 PM 35.6 °F 29.9 °F 28.4 °F 75% 30.10 in 10.0 mi SE 6.9 mph - N/A   Overcast